Flag for Canada Weather past 2 weeks in Edmonton, Alberta, Canada

Now
1 °F

Light snow. Overcast.


Feels Like: -8 °F
Forecast: 0 / 6 °F
Wind: 5 mph from Northeast

Location: Edmonton Municipal

Current Time: Jan 31, 2015 at 7:57:35 AM

Latest Report: Jan 31, 2015 at 7:00 AM


Visibility: 4 mi

Pressure: 30.69 "Hg

Humidity: 78%

Dew point: -4 °F

Location of EdmontonLocation

Historic Weather in Edmonton — Graph

°F

Edmonton temperature yesterday

Maximum temperature yesterday: 25 °F (at 12:00 AM)
Minimum temperature yesterday: 7 °F (at 11:55 PM)
Average temperature yesterday: 17 °F

Past Weeks' High & Low Weather Summary

 TemperatureHumidityPressure
High50 °F (Jan 22, 3:00 PM)100% (Jan 27, 5:00 AM)30.68 "Hg (Jan 27, 5:00 AM)
Low1 °F (Jan 31, 6:02 AM)43% (Jan 22, 3:00 PM)29.43 "Hg (Jan 16, 10:58 AM)
Average31 °F72%29.99 "Hg
* Reported Jan 16 6:00 AM — Jan 31 6:02 AM, Edmonton, Weather by CustomWeather, © 2014

Note: Actual official high and low records may vary slightly from our data, if they occured in-between our weather recording intervals... More about our weather records

Advertising

Edmonton weather history for previous 24 hours

 ConditionsComfort  
Time TempWeatherWind HumidityBarometerVisibility
6:02 AM
Jan 31
1 °FOvercast.6 mph78%30.52 "Hg5 mi
5:00 AM3 °FOvercast.7 mph78%30.68 "Hg3 mi
4:53 AM3 °FOvercast.8 mph78%30.51 "Hg2 mi
4:00 AM3 °FLight snow. Overcast.8 mph78%30.67 "Hg3 mi
3:49 AM3 °FLight snow. Overcast.7 mph78%30.51 "Hg3 mi
3:00 AM3 °FOvercast.14 mph78%30.66 "Hg3 mi
2:00 AM5 °FLight snow. Overcast.9 mph78%30.63 "Hg3 mi
1:48 AM5 °FLight snow. Overcast.9 mph78%30.48 "Hg3 mi
1:00 AM7 °FLight snow. Overcast.12 mph78%30.61 "Hg2 mi
12:00 AM7 °FLight snow. Overcast.13 mph78%30.59 "Hg4 mi
11:55 PM
Jan 30
7 °FLight snow. Overcast.13 mph78%30.43 "Hg7 mi
11:00 PM9 °FLight snow. Overcast.10 mph78%30.56 "Hg1 mi
10:47 PM9 °FLight snow. Overcast.10 mph78%30.41 "Hg1 mi
10:00 PM9 °FLight snow. Overcast.14 mph78%30.55 "Hg2 mi
9:00 PM9 °FLight snow. Overcast.14 mph85%30.52 "Hg1 mi
8:00 PM10 °FIce fog.14 mph79%30.51 "Hg1 mi
7:52 PM10 °FMostly cloudy.12 mph79%30.37 "Hg1 mi
7:00 PM12 °FLight snow. Overcast.12 mph79%30.50 "Hg1 mi
6:48 PM12 °FLight snow. Ice fog.13 mph79%30.36 "Hg1 mi
6:00 PM12 °FLight snow. Ice fog.13 mph85%30.46 "Hg1 mi
5:00 PM14 °FLight snow. Ice fog.13 mph85%30.45 "Hg1 mi
4:00 PM16 °FLight snow. Ice fog.14 mph79%30.42 "Hg1 mi
3:56 PM16 °FLight snow. Ice fog.16 mph79%30.29 "Hg1 mi
3:00 PM16 °FOvercast.9 mph79%30.42 "Hg6 mi
2:00 PM18 °FLow clouds.9 mph79%30.41 "Hg9 mi
1:01 PM18 °FLow clouds.13 mph79%30.31 "Hg9 mi
12:00 PM19 °FOvercast.13 mph79%30.42 "Hg9 mi
11:00 AM21 °FOvercast.9 mph80%30.41 "Hg9 mi
10:00 AM23 °FMostly cloudy.9 mph80%30.40 "Hg9 mi
9:00 AM23 °FLow clouds.9 mph86%30.37 "Hg6 mi
8:00 AM21 °FPassing clouds.5 mph86%30.35 "Hg9 mi
7:00 AM23 °FPassing clouds.No wind86%30.33 "Hg9 mi
Weather by CustomWeather, © 2014

See weather overviewHow to use our weather pages